{"data":{"norad_id":51795,"epoch":"2026-05-25T00:34:49.984032Z","epoch_age_seconds":72724,"freshness":"FRESH","line1":"1 51795U 22017AD  26145.02418963  .00000170  00000+0  28743-4 0  9995","line2":"2 51795  53.2147   6.6404 0001417  93.2477 266.8677 15.08839236235441","mean_motion":15.08839236,"eccentricity":0.0001417,"inclination_deg":53.2147,"raan_deg":6.6404,"arg_perigee_deg":93.2477,"mean_anomaly_deg":266.8677,"bstar":2.8743e-5,"rev_number":23544,"period_min":95.437603002524,"perigee_km":538.76546022543,"apogee_km":540.72598818947,"semimajor_km":6917.8827242074,"source":"CELESTRAK","updated_at":"2026-05-25T13:38:16.955677Z"}}